07.05.2024;13:00;33
07.05.2024;12:00;33
07.05.2024;11:00;29
07.05.2024;10:00;26
07.05.2024;09:00;25
07.05.2024;08:00;29
07.05.2024;07:00;18
07.05.2024;06:00;11
07.05.2024;05:00;4
07.05.2024;04:00;3
07.05.2024;03:00;3
07.05.2024;02:00;4
07.05.2024;01:00;4
07.05.2024;00:00;8
06.05.2024;23:00;9
06.05.2024;22:00;12
06.05.2024;21:00;14
06.05.2024;20:00;19
06.05.2024;19:00;25
06.05.2024;18:00;16
06.05.2024;17:00;23
06.05.2024;16:00;29
06.05.2024;15:00;15
06.05.2024;14:00;19
06.05.2024;13:00;19
06.05.2024;12:00;10
06.05.2024;11:00;9
06.05.2024;10:00;11
06.05.2024;09:00;17
06.05.2024;08:00;23
06.05.2024;07:00;18
06.05.2024;06:00;15
06.05.2024;05:00;11
06.05.2024;04:00;10
06.05.2024;03:00;8
06.05.2024;02:00;12
06.05.2024;01:00;18
06.05.2024;00:00;19
05.05.2024;23:00;26
05.05.2024;22:00;17
05.05.2024;21:00;22
05.05.2024;20:00;15
05.05.2024;19:00;9
05.05.2024;18:00;11
05.05.2024;17:00;9
05.05.2024;16:00;11
05.05.2024;15:00;8
05.05.2024;14:00;8
